AirNav   Air Wisconsin pilot careers
 
 481 users online  

CYQG Windsor Airport
Windsor, Ontario, Canada

GOING TO WINDSOR?


FAA INFORMATION EFFECTIVE 11 OCTOBER 2018

The information below comes from the U.S. Federal Avaition Administration (FAA). The FAA is not the official source of data for facilities located outside the United States, and THESE RECORDS ARE LIKELY NOT COMPLETE OR CORRECT.

Location

FAA Identifier: CYQG
Lat/Long: 42-16-33.1111N / 082-57-27.5347W
42-16.551852N / 082-57.458912W
42.2758642 / -82.9576485
(estimated)
Elevation: 622 ft. / 190 m (estimated)
Variation: 07W ()
Time zone: UTC -4 (UTC -5 during Standard Time)
Zip code: 48243

Airport Operations

Airport use: Open to the public
Activation date: 03/2005
Control tower: no
ARTCC: CLEVELAND CENTER
FSS: LONDON FIC FLIGHT SERVICE STATION
Attendance: 
Segmented circle: no

Airport Communications

WX ASOS at DET (8 nm N): PHONE 313-371-9696
WX AWOS-3 at ONZ (14 nm SW): 119.675 (734-692-9686)
WX ASOS at DTW (18 nm W): PHONE 734-955-5015
WX AWOS-3 at VLL (19 nm NW): 119.475 (248-288-4649)

Nearby radio navigation aids

VOR radial/distance  VOR name  Freq  Var
YQGr291/5.9WINDSOR VOR/DME113.8006W
DXOr084/18.6DETROIT VOR/DME113.4006W
CRLr061/26.1CARLETON VOR/DME115.7003W
SVMr109/29.3SALEM VORTAC114.3003W

 
NDB name  Hdg/Dist  Freq  Var  ID
GROSSE ILE047/13.641907WRYS .-. -.-- ...

Airport Services

Runway Information

Runway 7/25

Dimensions: 9000 x 200 ft. / 2743 x 61 m
Surface: asphalt
RUNWAY 7  RUNWAY 25
Latitude: 42-16.404018N42-17.086803N
Longitude: 082-58.209487W082-56.438652W
Elevation: 622.0 ft.608.0 ft.
Traffic pattern: leftleft
Runway heading: 070 magnetic, 063 true250 magnetic, 243 true
Displaced threshold: 901 ft.1143 ft.
Touchdown point: yes, no lightsyes, no lights

Runway 12/30

Dimensions: 5150 x 150 ft. / 1570 x 46 m
Surface: asphalt
RUNWAY 12  RUNWAY 30
Latitude: 42-16.396830N42-16.030400N
Longitude: 082-58.209295W082-57.179820W
Elevation: 622.0 ft.619.0 ft.
Traffic pattern: leftleft
Runway heading: 123 magnetic, 116 true303 magnetic, 296 true
Displaced threshold: 570 ft.321 ft.
Touchdown point: yes, no lightsyes, no lights

Airport Ownership and Management from official FAA records

Ownership: Publicly-owned

Additional Remarks

FOR CD CTC DETROIT APCH AT 800-499-8181.

Instrument Procedures

There are no published instrument procedures at CYQG.

Some nearby airports with instrument procedures:

KDET - Coleman A Young Municipal Airport (8 nm N)
KONZ - Grosse Ile Municipal Airport (14 nm SW)
KDTW - Detroit Metropolitan Wayne County Airport (18 nm W)
KVLL - Oakland/Troy Airport (19 nm NW)
KMTC - Selfridge Air National Guard Base (21 nm N)
 
Loc | Ops | Rwys | IFR | FBO | Links
Com | Nav | Svcs | Stats | Notes


 
Aerial photo
No photo
 
Airport distance calculator
Flying to Windsor Airport? Find the distance to fly.

From to CYQG

Sunrise and sunset
Times for 19-Oct-2018
 Local
(UTC-4)
 Zulu
(UTC)
Morning civil twilight07:2211:22
Sunrise07:5011:50
Sunset18:4322:43
Evening civil twilight19:1223:12

Current date and time
Zulu (UTC)  19-Oct-2018 10:16:08
Local (UTC-4)  19-Oct-2018 06:16:08
 
METAR
CYQG 190900Z AUTO 23007KT 9SM CLR 05/M00 A3024 RMK SLP244
KDET 
8nm N 
190953Z 23007KT 10SM CLR 06/M01 A3022 RMK AO2 SLP236 T00561011
KONZ 
14nm SW 
190955Z AUTO 21004KT 10SM CLR 06/00 A3023 RMK AO2 T00560000
CXHA 
15nm S 
190900Z AUTO 24009KT 08/02 RMK AO1 SLP241 T00820016 58009
KDTW 
17nm W 
190953Z 21008KT 10SM FEW220 04/M01 A3023 RMK AO2 SLP240 T00391011
KVLL 
19nm NW 
190955Z AUTO 21008KT 10SM CLR 05/M01 A3022 RMK AO2 T00531012
TAF
CYQG 190539Z 1906/2006 23010G20KT P6SM SKC FM191500 23015G25KT P6SM SCT150 BKN200 FM192000 24018G28KT P6SM -SHRA OVC090 FM192200 24018G28KT P6SM -RA OVC040 FM200400 24017G27KT 5SM -RA BR OVC020 RMK FCST BASED ON AUTO OBS. NXT FCST BY 191200Z
KDET 
8nm N 
190538Z 1906/2006 24010KT P6SM SKC FM191800 22015G22KT P6SM OVC100 FM192100 23014G22KT P6SM OVC050 PROB30 1921/2001 P6SM -RA OVC030 FM200200 24016KT P6SM OVC025
KDTW 
17nm W 
190538Z 1906/2012 22009KT P6SM SKC FM191700 21015G22KT P6SM OVC100 FM192100 23014G22KT P6SM OVC050 PROB30 1921/2001 P6SM -RA OVC030 FM200200 24016KT P6SM OVC025
NOTAMs
Click for the latest NOTAMs
NOTAMs are issued by the DoD/FAA and will open in a separate window not controlled by AirNav.

 

 
 

Would you like to see your business listed on this page?

 If your business provides an interesting product or service to pilots, flight crews, aircraft, or users of the Windsor Airport, you should consider listing it here.  To start the listing process, click on the button below
 
Add a business
 

Other Pages about Windsor Airport

Update a link
 
Copyright © AirNav, LLC. All rights reserved. Privacy Policy  Contact